| time (UTC) | temp F | wind direction | speed MPH | gust MPH | rain 1hr in | rain 24hr in | rain mn in | humidity % | barometer mb |
| 20260504222641 | 60 | 208 | 9.0 | 20.0 | 0.00 | 0.00 | 0.00 | 64 | 1016.4 |
| 20260504221742 | 60 | 215 | 10.0 | 21.0 | 0.00 | 0.00 | 0.00 | 62 | 1016.5 |
| 20260504220841 | 61 | 213 | 9.0 | 17.0 | 0.00 | 0.00 | 0.00 | 61 | 1016.6 |
| 20260504215941 | 61 | 206 | 8.0 | 18.0 | 0.00 | 0.00 | 0.00 | 61 | 1016.7 |
| 20260504215041 | 61 | 215 | 9.0 | 19.0 | 0.00 | 0.00 | 0.00 | 61 | 1016.7 |
| 20260504214141 | 61 | 205 | 10.0 | 22.0 | 0.00 | 0.00 | 0.00 | 60 | 1016.8 |
| 20260504213242 | 62 | 209 | 10.0 | 19.0 | 0.00 | 0.00 | 0.00 | 58 | 1016.8 |
| 20260504212341 | 62 | 203 | 8.0 | 19.0 | 0.00 | 0.00 | 0.00 | 57 | 1016.7 |
| 20260504211443 | 62 | 210 | 8.0 | 17.0 | 0.00 | 0.00 | 0.00 | 57 | 1016.7 |
| 20260504210541 | 62 | 199 | 9.0 | 16.0 | 0.00 | 0.00 | 0.00 | 58 | 1016.7 |
| 20260504205641 | 63 | 193 | 8.0 | 19.0 | 0.00 | 0.00 | 0.00 | 57 | 1016.9 |
| 20260504204741 | 63 | 198 | 9.0 | 18.0 | 0.00 | 0.00 | 0.00 | 57 | 1016.8 |
| 20260504203841 | 63 | 211 | 9.0 | 19.0 | 0.00 | 0.00 | 0.00 | 56 | 1016.8 |
| 20260504202941 | 63 | 208 | 10.0 | 23.0 | 0.00 | 0.00 | 0.00 | 55 | 1016.7 |
| 20260504202042 | 64 | 208 | 10.0 | 21.0 | 0.00 | 0.00 | 0.00 | 54 | 1016.7 |
| 20260504201140 | 64 | 202 | 9.0 | 20.0 | 0.00 | 0.00 | 0.00 | 53 | 1016.7 |
| 20260504200241 | 64 | 218 | 9.0 | 18.0 | 0.00 | 0.00 | 0.00 | 54 | 1016.8 |
| 20260504195340 | 64 | 223 | 12.0 | 23.0 | 0.00 | 0.00 | 0.00 | 54 | 1016.9 |
| 20260504194440 | 64 | 202 | 10.0 | 23.0 | 0.00 | 0.00 | 0.00 | 51 | 1017.0 |
| 20260504192641 | 65 | 211 | 10.0 | 18.0 | 0.00 | 0.00 | 0.00 | 50 | 1017.0 |
| 20260504191741 | 65 | 191 | 10.0 | 20.0 | 0.00 | 0.00 | 0.00 | 51 | 1016.9 |
| 20260504190841 | 65 | 195 | 10.0 | 22.0 | 0.00 | 0.00 | 0.00 | 50 | 1017.1 |
| 20260504185040 | 66 | 210 | 7.0 | 18.0 | 0.00 | 0.00 | 0.00 | 49 | 1017.3 |
| 20260504184140 | 65 | 228 | 7.0 | 20.0 | 0.00 | 0.00 | 0.00 | 51 | 1017.3 |
| 20260504183241 | 65 | 201 | 7.0 | 14.0 | 0.00 | 0.00 | 0.00 | 49 | 1017.3 |
| 20260504182340 | 65 | 210 | 8.0 | 15.0 | 0.00 | 0.00 | 0.00 | 51 | 1017.5 |
| 20260504180541 | 65 | 213 | 8.0 | 16.0 | 0.00 | 0.00 | 0.00 | 51 | 1017.7 |
| 20260504175640 | 64 | 210 | 8.0 | 17.0 | 0.00 | 0.00 | 0.00 | 50 | 1017.9 |
| 20260504174740 | 65 | 206 | 7.0 | 15.0 | 0.00 | 0.00 | 0.00 | 51 | 1017.9 |
| 20260504173840 | 65 | 220 | 9.0 | 17.0 | 0.00 | 0.00 | 0.00 | 49 | 1017.9 |
| 20260504172940 | 64 | 216 | 9.0 | 21.0 | 0.00 | 0.00 | 0.00 | 47 | 1017.9 |
| 20260504172041 | 64 | 221 | 10.0 | 22.0 | 0.00 | 0.00 | 0.00 | 47 | 1018.0 |
| 20260504171141 | 64 | 211 | 11.0 | 22.0 | 0.00 | 0.00 | 0.00 | 44 | 1018.2 |
| 20260504170240 | 65 | 211 | 9.0 | 19.0 | 0.00 | 0.00 | 0.00 | 44 | 1018.2 |
| 20260504150540 | 64 | 243 | 9.0 | 20.0 | 0.00 | 0.00 | 0.00 | 42 | 1019.4 |
| 20260504141140 | 62 | 234 | 7.0 | 14.0 | 0.00 | 0.00 | 0.00 | 45 | 1019.6 |
| 20260504140239 | 62 | 225 | 5.0 | 12.0 | 0.00 | 0.00 | 0.00 | 48 | 1019.6 |
| 20260504110239 | 51 | 235 | 5.0 | 14.0 | 0.00 | 0.00 | 0.00 | 59 | 1020.6 |
| 20260504080239 | 47 | 226 | 1.0 | 4.0 | 0.00 | 0.00 | 0.00 | 63 | 1019.4 |
| 20260504050237 | 41 | 0 | 0.0 | 0.0 | 0.00 | 0.00 | 0.00 | 68 | 1018.7 |
| 20260504045337 | 41 | 0 | 0.0 | 0.0 | 0.00 | 0.00 | 0.00 | 67 | 1018.8 |
| 20260504044437 | 42 | 0 | 0.0 | 0.0 | 0.00 | 0.00 | 0.00 | 66 | 1018.8 |
| 20260504043537 | 42 | 0 | 0.0 | 0.0 | 0.00 | 0.00 | 0.00 | 64 | 1018.8 |
| 20260504042637 | 43 | 0 | 0.0 | 0.0 | 0.00 | 0.00 | 0.00 | 63 | 1018.7 |
| 20260504041737 | 43 | 0 | 0.0 | 0.0 | 0.00 | 0.00 | 0.00 | 62 | 1018.7 |
| 20260504040837 | 42 | 0 | 0.0 | 0.0 | 0.00 | 0.00 | 0.00 | 64 | 1018.7 |
| 20260504035937 | 42 | 0 | 0.0 | 0.0 | 0.00 | 0.00 | 0.00 | 64 | 1018.7 |
| 20260504035037 | 42 | 0 | 0.0 | 0.0 | 0.00 | 0.00 | 0.00 | 62 | 1018.7 |
| 20260504033237 | 43 | 0 | 0.0 | 0.0 | 0.00 | 0.00 | 0.00 | 61 | 1018.6 |
| 20260504032337 | 43 | 0 | 0.0 | 0.0 | 0.00 | 0.00 | 0.00 | 61 | 1018.6 |
| 20260504031437 | 43 | 0 | 0.0 | 0.0 | 0.00 | 0.00 | 0.00 | 63 | 1018.6 |
| 20260504030537 | 42 | 0 | 0.0 | 0.0 | 0.00 | 0.00 | 0.00 | 64 | 1018.5 |
| 20260504025637 | 42 | 0 | 0.0 | 0.0 | 0.00 | 0.00 | 0.00 | 67 | 1018.5 |
| 20260504023837 | 43 | 0 | 0.0 | 0.0 | 0.00 | 0.00 | 0.00 | 63 | 1018.4 |
| 20260504022936 | 43 | 0 | 0.0 | 0.0 | 0.00 | 0.00 | 0.00 | 64 | 1018.4 |
| 20260504022037 | 44 | 0 | 0.0 | 0.0 | 0.00 | 0.00 | 0.00 | 65 | 1018.4 |
| 20260504021136 | 44 | 0 | 0.0 | 0.0 | 0.00 | 0.00 | 0.00 | 61 | 1018.4 |
| 20260504020236 | 45 | 0 | 0.0 | 0.0 | 0.00 | 0.00 | 0.00 | 58 | 1018.4 |
| 20260504015336 | 45 | 0 | 0.0 | 0.0 | 0.00 | 0.00 | 0.00 | 58 | 1018.4 |
| 20260504014436 | 45 | 0 | 0.0 | 0.0 | 0.00 | 0.00 | 0.00 | 56 | 1018.4 |
| 20260504013536 | 47 | 0 | 0.0 | 0.0 | 0.00 | 0.00 | 0.00 | 56 | 1018.3 |
| 20260504012636 | 47 | 0 | 0.0 | 0.0 | 0.00 | 0.00 | 0.00 | 54 | 1018.1 |
| 20260504011736 | 48 | 0 | 0.0 | 0.0 | 0.00 | 0.00 | 0.00 | 52 | 1018.1 |
| 20260504010836 | 49 | 0 | 0.0 | 0.0 | 0.00 | 0.00 | 0.00 | 51 | 1018.0 |
| 20260504005936 | 50 | 0 | 0.0 | 0.0 | 0.00 | 0.00 | 0.00 | 47 | 1017.8 |
| 20260504005036 | 51 | 0 | 0.0 | 0.0 | 0.00 | 0.00 | 0.00 | 45 | 1017.7 |
| 20260504004136 | 52 | 0 | 0.0 | 0.0 | 0.00 | 0.00 | 0.00 | 43 | 1017.6 |
| 20260504003236 | 53 | 0 | 0.0 | 0.0 | 0.00 | 0.00 | 0.00 | 39 | 1017.5 |
| 20260504002336 | 53 | 251 | 0.0 | 2.0 | 0.00 | 0.00 | 0.00 | 39 | 1017.3 |
| 20260504001436 | 54 | 259 | 1.0 | 3.0 | 0.00 | 0.00 | 0.00 | 38 | 1017.1 |
| 20260504000536 | 54 | 252 | 1.0 | 3.0 | 0.00 | 0.00 | 0.00 | 38 | 1017.0 |
| 20260503234736 | 55 | 274 | 3.0 | 7.0 | 0.00 | 0.00 | 0.00 | 40 | 1016.8 |
| 20260503233836 | 56 | 279 | 5.0 | 10.0 | 0.00 | 0.00 | 0.00 | 38 | 1016.7 |
| 20260503232937 | 56 | 282 | 4.0 | 11.0 | 0.00 | 0.00 | 0.00 | 37 | 1016.6 |
| 20260503232036 | 56 | 283 | 4.0 | 8.0 | 0.00 | 0.00 | 0.00 | 37 | 1016.4 |
| 20260503231136 | 57 | 284 | 5.0 | 10.0 | 0.00 | 0.00 | 0.00 | 38 | 1016.4 |
| 20260503230236 | 57 | 290 | 7.0 | 14.0 | 0.00 | 0.00 | 0.00 | 38 | 1016.4 |
| 20260503224435 | 58 | 291 | 6.0 | 13.0 | 0.00 | 0.00 | 0.00 | 36 | 1016.3 |